Location: Bazugues
(43.4465°N, 0.3432°E)
Time: 17:36:52
(UTC+00:00)

Cosmos 2341 Rocket - Visible Passes

Search period start: 11 April 2026 00:00
Search period end: 21 April 2026 00:00
Orbit: 968 x 1003 km, 82.9° (Epoch: 11 April)

Date Brightness Start Highest point End Pass type
(mag) Time Alt. Az. Time Alt. Az. Time Alt. Az.
11 Apr 5.6 19:04:07 10° ESE 19:07:18 15° ENE 19:10:29 10° NE visible
11 Apr 4.0 20:46:43 15° S 20:51:57 86° W 20:58:16 10° N visible
11 Apr 6.5 22:35:25 10° W 22:38:33 14° WNW 22:41:42 10° NNW visible
12 Apr 4.9 19:29:58 10° SE 19:35:06 28° E 19:40:18 10° NNE visible
12 Apr 4.9 21:14:26 10° SSW 21:20:23 47° WNW 21:26:26 10° N visible
13 Apr 4.1 19:57:09 10° SSE 20:03:08 52° E 20:09:13 10° NNE visible
13 Apr 5.9 21:43:59 10° SW 21:49:03 26° WNW 21:54:13 10° NNW visible
14 Apr 4.0 20:25:08 10° S 20:31:22 85° W 20:37:42 10° N visible
14 Apr 6.6 22:14:50 10° W 22:17:59 14° WNW 22:21:09 10° NNW visible
15 Apr 4.9 19:09:24 10° SE 19:14:32 28° E 19:19:44 10° NNE visible
15 Apr 5.0 20:53:51 10° SSW 20:59:49 47° WNW 21:05:53 10° N visible
16 Apr 4.2 19:36:34 10° SSE 19:42:34 52° E 19:48:39 10° NNE visible
16 Apr 6.0 21:23:24 10° SW 21:28:29 26° WNW 21:33:39 10° NNW visible
17 Apr 4.1 20:04:33 10° S 20:10:47 85° W 20:17:09 10° N visible
17 Apr 6.7 21:54:15 10° W 21:57:25 14° WNW 22:00:35 10° NNW visible
18 Apr 5.0 20:33:16 10° SSW 20:39:14 47° WNW 20:45:19 10° N visible
19 Apr 4.2 19:15:59 10° SSE 19:22:00 52° E 19:28:05 10° NNE visible
19 Apr 6.1 21:02:48 10° SW 21:07:55 26° WNW 21:13:06 10° NNW visible
20 Apr 4.1 19:43:58 10° S 19:50:13 85° W 19:56:35 10° N visible
20 Apr 6.8 21:33:40 10° W 21:36:50 14° WNW 21:40:02 10° NNW visible
